Weather History for KSDA - February, 2013

Change the Weather History Date:

Sunday, February 10, 2013

  Actual Average Record
Temperature  
Mean Temperature 40 °F -  
Max Temperature 48 °F 35 °F 77 °F (1999)
Min Temperature 32 °F 17 °F -11 °F (2014)
Degree Days  
Heating Degree Days 25    
Moisture  
Dew Point 31 °F    
Average Humidity 75    
Maximum Humidity 87    
Minimum Humidity 57    
Precipitation  
Precipitation 0.01 in - - ()
Sea Level Pressure  
Sea Level Pressure 29.52 in    
Wind  
Wind Speed 19 mph (SSW)    
Max Wind Speed 33 mph    
Max Gust Speed 41 mph    
Visibility 8 miles    
Events Rain    
Averages and records for this station are not official NWS values.
T = Trace of Precipitation, MM = Missing Value Source: NWS Daily Summary

Daily Weather History Graph

Daily Weather History Graph

Search for Another Location

Airport or City:

Trip Planner

Search our weather history database for the weather conditions in past years. The results will help you decide how hot, cold, wet, or windy it might be!

Date:

Astronomy

Feb. 10, 2013 Rise Set
Actual Time 7:21 AM CST 5:50 PM CST
Civil Twilight 6:53 AM CST 6:19 PM CST
Nautical Twilight 6:20 AM CST 6:51 PM CST
Astronomical Twilight 5:49 AM CST 7:23 PM CST
Moon 7:11 AM CST (2/10) 6:43 PM CST (2/10)
Length of Visible Light 11h 25m
Length of Day
10h 29m
New Moon, 0% of the Moon is Illuminated
Feb 10
New Moon
Feb 17
First Quarter
Feb 25
Full
Mar 4
Last Quarter
Mar 11
New

Hourly Weather History & Observations

Time (CST) Temp. Windchill Dew Point Humidity Pressure Visibility Wind Dir Wind Speed Gust Speed Precip Events Conditions
12:15 AM 39.2 °F 30.8 °F 32.0 °F 75% 29.73 in 10.0 mi SSE 15.0 mph - N/A   Overcast
12:35 AM 39.2 °F 31.6 °F 32.0 °F 75% 29.73 in 10.0 mi SE 12.7 mph - N/A   Overcast
12:55 AM 39.2 °F 32.0 °F 32.0 °F 75% 29.73 in 10.0 mi SSE 11.5 mph - N/A   Overcast
1:15 AM 39.2 °F 32.5 °F 33.8 °F 81% 29.72 in 7.0 mi SSE 10.4 mph - N/A   Overcast
1:35 AM 37.4 °F 29.8 °F 33.8 °F 87% 29.69 in 5.0 mi SE 11.5 mph - N/A   Drizzle
1:55 AM 37.4 °F 28.9 °F 33.8 °F 87% 29.66 in 5.0 mi SE 13.8 mph - N/A   Haze
2:15 AM 37.4 °F 28.5 °F 33.8 °F 87% 29.65 in 5.0 mi SE 15.0 mph - N/A   Haze
2:35 AM 37.4 °F 29.3 °F 33.8 °F 87% 29.64 in 4.0 mi SE 12.7 mph - N/A   Light Drizzle
2:55 AM 37.4 °F 27.8 °F 33.8 °F 87% 29.62 in 3.0 mi SE 17.3 mph 21.9 mph N/A   Overcast
3:15 AM 39.2 °F 29.6 °F 33.8 °F 81% 29.60 in 2.5 mi SE 19.6 mph 24.2 mph N/A   Haze
3:35 AM 39.2 °F 30.8 °F 33.8 °F 81% 29.57 in 3.0 mi SE 15.0 mph 23.0 mph N/A   Haze
3:55 AM 39.2 °F 30.5 °F 35.6 °F 87% 29.54 in 4.0 mi SE 16.1 mph - N/A   Overcast
4:15 AM 39.2 °F 29.8 °F 35.6 °F 87% 29.52 in 5.0 mi SE 18.4 mph 24.2 mph N/A   Overcast
4:35 AM 39.2 °F 29.6 °F 35.6 °F 87% 29.51 in 2.0 mi SSE 19.6 mph 27.6 mph N/A   Drizzle
4:55 AM 39.2 °F 30.5 °F 35.6 °F 87% 29.48 in 4.0 mi SE 16.1 mph 24.2 mph N/A Rain Rain
5:15 AM 39.2 °F 29.3 °F 35.6 °F 87% 29.47 in 7.0 mi SE 20.7 mph 25.3 mph N/A   Light Drizzle
5:35 AM 39.2 °F 29.6 °F 35.6 °F 87% 29.46 in 5.0 mi SSE 19.6 mph 27.6 mph N/A   Overcast
5:55 AM 39.2 °F 29.6 °F 35.6 °F 87% 29.45 in 4.0 mi SSE 19.6 mph 26.5 mph N/A   Overcast
6:15 AM 39.2 °F 30.2 °F 35.6 °F 87% 29.43 in 2.0 mi SSE 17.3 mph 26.5 mph N/A   Drizzle
6:35 AM 41.0 °F 32.2 °F 37.4 °F 87% 29.43 in 2.5 mi SSE 18.4 mph 25.3 mph 0.01 in   Drizzle
6:55 AM 41.0 °F 32.2 °F 37.4 °F 87% 29.44 in 4.0 mi SSE 18.4 mph 21.9 mph 0.01 in   Light Drizzle
7:15 AM 42.8 °F 34.8 °F 37.4 °F 81% 29.43 in 7.0 mi SSE 17.3 mph 23.0 mph N/A   Overcast
7:35 AM 42.8 °F 34.3 °F 37.4 °F 81% 29.41 in 7.0 mi SSE 19.6 mph 26.5 mph N/A   Overcast
7:55 AM 42.8 °F 34.8 °F 37.4 °F 81% 29.41 in 7.0 mi South 17.3 mph 25.3 mph N/A   Overcast
8:15 AM 44.6 °F 36.9 °F 39.2 °F 81% 29.40 in 10.0 mi South 18.4 mph 23.0 mph N/A   Overcast
8:35 AM 44.6 °F 36.4 °F 39.2 °F 81% 29.39 in 10.0 mi South 20.7 mph 26.5 mph N/A   Overcast
8:55 AM 44.6 °F 36.6 °F 39.2 °F 81% 29.37 in 10.0 mi South 19.6 mph 26.5 mph N/A   Mostly Cloudy
9:15 AM 46.4 °F 38.7 °F 39.2 °F 76% 29.35 in 10.0 mi South 20.7 mph 27.6 mph N/A   Overcast
9:35 AM 46.4 °F 39.0 °F 39.2 °F 76% 29.34 in 10.0 mi South 19.6 mph 29.9 mph N/A   Scattered Clouds
9:55 AM 48.2 °F - 41.0 °F 76% 29.33 in 10.0 mi South 21.9 mph 27.6 mph N/A   Scattered Clouds
10:15 AM 46.4 °F 38.5 °F 39.2 °F 76% 29.32 in 10.0 mi SSW 21.9 mph 27.6 mph N/A   Mostly Cloudy
10:35 AM 46.4 °F 37.4 °F 35.6 °F 66% 29.33 in 10.0 mi SW 28.8 mph 35.7 mph N/A   Mostly Cloudy
10:55 AM 46.4 °F 37.4 °F 33.8 °F 62% 29.34 in 10.0 mi SW 28.8 mph 34.5 mph N/A   Clear
11:15 AM 44.6 °F 34.9 °F 33.8 °F 66% 29.34 in 10.0 mi SSW 28.8 mph 36.8 mph N/A   Mostly Cloudy
11:35 AM 44.6 °F 34.7 °F 30.2 °F 57% 29.35 in 10.0 mi SSW 29.9 mph 35.7 mph N/A   Overcast
11:55 AM 44.6 °F 35.1 °F 30.2 °F 57% 29.35 in 10.0 mi SW 27.6 mph 34.5 mph N/A   Overcast
12:15 PM 42.8 °F 32.9 °F 28.4 °F 57% 29.34 in 10.0 mi SW 26.5 mph 34.5 mph N/A   Overcast
12:35 PM 42.8 °F 32.9 °F 30.2 °F 61% 29.34 in 10.0 mi SSW 26.5 mph 32.2 mph N/A   Overcast
12:55 PM 42.8 °F 33.8 °F 30.2 °F 61% 29.35 in 10.0 mi SW 21.9 mph 32.2 mph N/A   Overcast
1:15 PM 41.0 °F 30.0 °F 28.4 °F 61% 29.35 in 10.0 mi SW 28.8 mph 36.8 mph N/A   Overcast
1:35 PM 39.2 °F 28.5 °F 28.4 °F 65% 29.35 in 10.0 mi SW 24.2 mph 34.5 mph N/A   Overcast
1:55 PM 39.2 °F 27.6 °F 30.2 °F 70% 29.35 in 10.0 mi SW 28.8 mph 35.7 mph N/A   Overcast
2:15 PM 39.2 °F 27.2 °F 30.2 °F 70% 29.35 in 10.0 mi SW 31.1 mph 36.8 mph N/A   Overcast
2:35 PM 35.6 °F 21.9 °F 30.2 °F 81% 29.36 in 2.5 mi WSW 33.4 mph 41.4 mph N/A Rain Rain
2:55 PM 35.6 °F 22.3 °F 30.2 °F 81% 29.37 in 2.5 mi SW 31.1 mph 39.1 mph N/A   Light Drizzle
3:15 PM 35.6 °F 23.2 °F 30.2 °F 81% 29.38 in 1.5 mi SW 26.5 mph 35.7 mph N/A   Drizzle
3:35 PM 35.6 °F 23.2 °F 30.2 °F 81% 29.40 in 3.0 mi WSW 26.5 mph 36.8 mph N/A   Haze
3:55 PM 35.6 °F 23.4 °F 30.2 °F 81% 29.42 in 2.5 mi WSW 25.3 mph 34.5 mph N/A   Overcast
4:15 PM 35.6 °F 23.2 °F 30.2 °F 81% 29.44 in 2.0 mi WSW 26.5 mph 32.2 mph N/A   Overcast
4:35 PM 35.6 °F 24.5 °F 30.2 °F 81% 29.46 in 2.0 mi WSW 20.7 mph 29.9 mph N/A   Drizzle
4:55 PM 35.6 °F 24.8 °F 30.2 °F 81% 29.48 in 3.0 mi West 19.6 mph 27.6 mph N/A   Drizzle
5:15 PM 33.8 °F 22.5 °F 30.2 °F 87% 29.50 in 7.0 mi West 19.6 mph 32.2 mph N/A   Light Drizzle
5:35 PM 33.8 °F 22.5 °F 28.4 °F 81% 29.52 in 10.0 mi West 19.6 mph 32.2 mph N/A   Overcast
5:55 PM 33.8 °F 20.8 °F 28.4 °F 81% 29.54 in 10.0 mi West 26.5 mph 34.5 mph N/A   Overcast
6:15 PM 33.8 °F 21.9 °F 28.4 °F 81% 29.56 in 10.0 mi West 21.9 mph 28.8 mph N/A   Overcast
6:35 PM 33.8 °F 22.8 °F 26.6 °F 75% 29.58 in 10.0 mi West 18.4 mph 29.9 mph N/A   Overcast
6:55 PM 33.8 °F 20.8 °F 24.8 °F 70% 29.60 in 10.0 mi West 26.5 mph 36.8 mph N/A   Overcast
7:15 PM 33.8 °F 22.2 °F 24.8 °F 70% 29.61 in 10.0 mi WNW 20.7 mph 29.9 mph N/A   Overcast
7:35 PM 33.8 °F 21.6 °F 24.8 °F 70% 29.63 in 10.0 mi West 23.0 mph 33.4 mph N/A   Overcast
7:55 PM 33.8 °F 22.2 °F 23.0 °F 65% 29.64 in 10.0 mi West 20.7 mph 33.4 mph N/A   Overcast
8:15 PM 33.8 °F 22.2 °F 23.0 °F 65% 29.65 in 10.0 mi West 20.7 mph 27.6 mph N/A   Overcast
8:35 PM 33.8 °F 20.5 °F 21.2 °F 60% 29.67 in 10.0 mi WNW 27.6 mph 40.3 mph N/A   Overcast
8:55 PM 33.8 °F 22.5 °F 21.2 °F 60% 29.69 in 10.0 mi WNW 19.6 mph 31.1 mph N/A   Overcast
9:15 PM 33.8 °F 20.8 °F 21.2 °F 60% 29.70 in 10.0 mi WNW 26.5 mph 31.1 mph N/A   Overcast
9:35 PM 33.8 °F 22.2 °F 21.2 °F 60% 29.72 in 10.0 mi WNW 20.7 mph 32.2 mph N/A   Overcast
9:55 PM 33.8 °F 23.9 °F 23.0 °F 65% 29.73 in 10.0 mi WNW 15.0 mph 26.5 mph N/A   Overcast
10:15 PM 33.8 °F 20.5 °F 21.2 °F 60% 29.75 in 10.0 mi WNW 27.6 mph 36.8 mph N/A   Overcast
10:35 PM 33.8 °F 22.5 °F 21.2 °F 60% 29.77 in 10.0 mi WNW 19.6 mph 34.5 mph N/A   Overcast
10:55 PM 33.8 °F 22.5 °F 21.2 °F 60% 29.78 in 10.0 mi WNW 19.6 mph 34.5 mph N/A   Overcast
11:15 PM 32.0 °F 19.2 °F 21.2 °F 64% 29.78 in 10.0 mi WNW 23.0 mph 32.2 mph N/A   Mostly Cloudy
11:35 PM 32.0 °F 19.5 °F 21.2 °F 64% 29.79 in 10.0 mi WNW 21.9 mph 34.5 mph N/A   Mostly Cloudy
11:55 PM 33.8 °F 21.3 °F 21.2 °F 60% 29.81 in 10.0 mi WNW 24.2 mph 33.4 mph N/A   Overcast